Location: Lamoine Observatory
(44.4551°N, 68.3470°W)
Time: 03:11:12
(UTC-05:00)

Daily predictions for brighter satellites

Satellite Brightness Start Highest point End
(mag) Time Altitude Azimuth Time Altitude Azimuth Time Altitude Azimuth
Cosmos 2333 Rocket 4.4 03:14:50 18° NNE 03:14:50 18° NNE 03:16:12 10° NNE
Cosmos 2278 Rocket 4.5 03:32:06 14° SSE 03:32:06 14° SSE 03:32:50 10° SSE
SL-16 R/B 3.5 03:35:20 33° SE 03:36:42 38° ESE 03:41:53 10° NE
USA 215 3.8 03:44:52 10° ENE 03:51:15 53° SE 03:53:25 38° S
Cosmos 2181 Rocket 4.0 03:57:28 67° N 03:58:23 84° E 04:04:46 10° S
Cosmos 1680 Rocket 4.3 03:58:17 25° SSE 04:01:04 48° ESE 04:06:05 10° NNE
Cosmos 1709 Rocket 4.2 04:07:18 57° N 04:07:18 57° N 04:12:11 10° N
Cosmos 2237 Rocket 3.3 04:10:24 31° N 04:10:24 31° N 04:13:24 10° NNE
CENTAUR R/B 2.4 04:11:31 72° WSW 04:12:13 84° NW 04:19:12 10° NE
Feng Yun 1-1 Rocket 4.2 04:08:12 10° NNE 04:13:53 80° ESE 04:19:22 10° SSW
Cosmos 2112 Rocket 4.4 04:14:45 10° S 04:19:52 61° ESE 04:25:00 10° NNE
Meteor 1-18 Rocket 4.4 04:16:13 23° N 04:20:08 76° ENE 04:26:04 10° SSE
Gbstr 26 Del rocket 4.0 04:26:07 39° S 04:26:07 39° S 04:29:05 10° SSE
Cosmos 1238 Rocket 3.3 04:29:31 52° N 04:30:43 87° E 04:36:14 10° S
Cosmos 1536 Rocket 3.9 04:29:02 36° NNE 04:30:43 64° E 04:35:05 10° SSE
ATLAS 3B R/B 4.4 04:30:02 17° NNW 04:30:48 17° N 04:35:11 10° NNE
Tiangong 2 2.9 04:33:52 30° ESE 04:33:52 30° ESE 04:35:51 10° E
ADEOS II 3.8 04:29:57 10° N 04:31:29 19° N 04:31:29 19° N
Cosmos 2369 Rocket 3.9 04:30:30 11° N 04:35:17 30° NE 04:40:14 10° ESE
Lacrosse 5 rocket 3.2 04:43:21 20° N 04:43:21 20° N 04:45:31 10° NNE
Meteor 1-20 Rocket 4.1 04:39:11 10° S 04:44:47 86° E 04:50:19 10° NNE
Cosmos 2219 Rocket 3.9 04:49:27 17° NNW 04:49:27 17° NNW 04:51:32 10° N
CZ-4C R/B 4.4 04:47:13 13° NNW 04:48:56 14° N 04:52:21 10° NNE
Okean 1 Rocket 4.4 04:47:15 10° SSE 04:51:23 41° E 04:55:31 10° NNE
ATLAS 5 CENTAUR R/B 4.3 04:51:51 10° NNW 04:52:35 11° N 04:53:46 10° N
Lacrosse 5 3.9 04:49:44 10° S 04:54:02 28° SE 04:58:21 10° ENE
Cosmos 2297 4.2 04:54:46 36° WSW 04:54:46 36° WSW 04:59:49 10° S
Cosmos 2333 Rocket 3.6 04:56:53 21° NNW 04:56:53 21° NNW 04:59:48 10° N
Meteor 1-14 Rocket 4.4 04:50:52 10° SSW 04:56:16 45° WNW 05:01:37 10° N
Cosmos 921 Rocket 3.0 04:55:07 44° NW 04:56:26 68° WSW 05:00:54 10° S
PSLV R/B 3.9 04:56:41 44° SSW 04:56:50 45° S 05:00:05 10° ESE
COSMO-SKYMED 1 2.4 04:52:32 10° S 04:56:51 74° WSW 04:59:03 29° NNW
SJ-6F 4.3 04:56:37 10° N 05:00:38 58° WNW 05:04:38 10° SSW
Cosmos 2056 Rocket 3.5 04:56:41 17° NNW 05:00:45 78° ENE 05:05:52 10° SSE
Cosmos 2327 Rocket 4.4 04:58:23 10° SSW 05:04:45 69° W 05:11:04 10° N
Okean 1 3.5 05:09:30 35° NW 05:10:45 49° W 05:14:39 10° SSW
USA 32 4.3 05:07:43 10° NNW 05:12:37 45° W 05:17:33 10° SSW
Meteor 1-11 Rocket 4.2 05:07:40 10° S 05:13:30 67° E 05:19:12 10° NNE
Cosmos 2074 Rocket 4.0 05:07:33 10° SSW 05:13:42 56° WNW 05:19:52 10° N
DMSP B5D1-3 4.5 05:09:42 10° S 05:14:48 65° WSW 05:19:57 10° NNW
Cosmos 1624 Rocket 3.9 05:10:36 16° NNW 05:14:52 75° WSW 05:20:09 10° SSE
Cosmos 1371 Rocket 4.1 05:15:09 19° NNW 05:18:54 56° WSW 05:24:02 10° S
Ariane Rocket 2.9 05:14:37 10° NNE 05:19:42 81° WNW 05:24:45 10° SSW
SL-16 R/B 2.7 05:17:22 19° WSW 05:20:49 36° NW 05:26:03 10° NNE
USA 129 1.6 05:20:49 10° SSE 05:22:48 77° ENE 05:22:48 77° ENE
Cosmos 1300 Rocket 3.5 05:19:12 10° SSW 05:23:37 71° W 05:28:03 10° N
Meteor 1-13 Rocket 4.3 05:18:38 10° NNW 05:24:35 75° W 05:30:31 10° S
Cosmos 2184 Rocket 4.2 05:21:35 10° SSW 05:27:26 45° WNW 05:33:23 10° N
Cosmos 1812 4.2 05:28:27 19° WSW 05:28:27 19° WSW 05:30:26 10° SW
Cosmos 292 Rocket 4.4 05:23:55 10° SW 05:28:17 33° WNW 05:32:41 10° N
Cosmos 1602 3.6 05:24:33 10° SSW 05:28:28 74° W 05:32:27 10° N
Cosmos 1943 Rocket 3.5 05:24:24 10° N 05:29:27 35° NE 05:34:27 10° ESE
Cosmos 1346 Rocket 3.4 05:28:50 24° NW 05:30:26 33° W 05:33:58 10° SSW
SL-24 DEB 4.2 05:26:22 10° S 05:31:08 81° W 05:35:57 10° N
USA 215 3.4 05:27:56 10° NE 05:34:16 56° NNW 05:40:36 10° WSW
CZ-4 R/B 1.9 05:34:35 10° NNE 05:38:34 62° E 05:42:25 10° S
Meteor 1-23 Rocket 4.3 05:34:47 10° N 05:40:23 78° E 05:45:56 10° SSE
Cosmos 2154 Rocket 3.9 05:36:28 10° SSW 05:42:38 66° W 05:48:48 10° N
Cosmos 1680 Rocket 4.5 05:39:12 10° WSW 05:43:26 25° WNW 05:47:42 10° N
Lacrosse 4 Rocket 3.5 05:42:50 10° N 05:46:04 21° NE 05:49:14 10° E
Meteor 2-13 Rocket 4.5 05:42:34 10° SSW 05:48:39 63° WNW 05:54:46 10° N
Cosmos 1452 Rocket 3.5 05:45:03 10° NNW 05:50:21 89° ENE 05:55:38 10° SSE
SL-23 DEB 4.0 05:48:55 16° NW 05:51:13 49° NNE 05:54:50 10° E
Cosmos 2237 Rocket 3.9 05:52:17 12° NW 05:53:12 12° NW 05:55:23 10° NNW
IRS-1A Rocket 4.3 05:48:00 10° NNE 05:53:42 78° WNW 05:59:28 10° SSW
Meteor 1-28 Rocket 4.2 05:51:57 10° SSW 05:55:13 27° W 05:58:31 10° NW
Cosmos 1536 2.8 05:53:04 10° SSW 05:56:59 57° W 06:00:57 10° N
Cosmos 1633 3.2 05:55:13 10° SW 05:58:34 33° WNW 06:01:55 10° N
Meteor 2-4 Rocket 3.7 05:53:48 10° NNW 05:59:13 63° W 06:04:45 10° S
CENTAUR R/B 3.7 05:58:46 10° W 06:04:00 26° NNW 06:09:56 10° NNE
Abrixas rocket 3.5 06:01:26 10° SW 06:04:39 42° SSE 06:07:51 10° ENE
CSL-04 Debris 4.4 06:03:24 10° N 06:08:36 47° WNW 06:13:48 10° SW
CSL-04 Rocket 4.1 06:03:40 10° N 06:08:51 41° WNW 06:13:58 10° SW
Tiangong 2 1.4 06:06:07 10° W 06:09:15 64° S 06:12:23 10° E
CZ-2C R/B 2.5 06:04:16 10° NNE 06:09:29 85° WNW 06:14:35 10° SSW
AQUARIUS 4.1 06:05:30 10° N 06:10:01 81° WNW 06:14:31 10° SSW
Helios 1B rocket 2.5 06:05:56 10° S 06:10:02 64° W 06:14:11 10° NNW
Meteor 1-5 Rocket 4.1 06:06:59 10° SSW 06:12:23 83° W 06:17:43 10° N
Cosmos 1340 2.6 06:10:21 10° NNW 06:14:09 78° W 06:17:55 10° S
YAOGAN 1 2.5 06:10:47 10° N 06:15:08 77° WNW 06:19:27 10° SSW
Cosmos 1603 4.3 06:13:11 10° WSW 06:18:18 33° NW 06:23:25 10° N
Cosmos 1484 Rocket 3.5 06:15:35 10° NNE 06:19:17 56° E 06:23:02 10° S
Cosmos 2369 Rocket 2.6 06:14:03 10° NW 06:19:33 49° WSW 06:24:59 10° S
SL-8 Rocket 4.0 06:13:54 10° SSW 06:20:10 72° W 06:26:25 10° N
MSX 4.2 06:15:04 10° NNE 06:20:50 74° ESE 06:26:34 10° S
Lacrosse 5 rocket 3.4 06:20:11 10° NW 06:22:43 15° N 06:25:20 10° NE
SMAP 3.1 06:18:17 10° N 06:22:54 63° WNW 06:27:29 10° SSW
ATLAS 3B R/B 4.4 06:19:45 10° NNW 06:24:35 19° NNE 06:29:14 10° ENE
Cosmos 44 3.5 06:20:14 10° SW 06:25:37 81° NW 06:30:49 10° NNE
Cosmos 1269 Rocket 4.4 06:20:45 10° SSW 06:26:01 75° ESE 06:31:20 10° NNE
Cosmos 1025 Rocket 3.9 06:22:13 10° NNW 06:26:07 31° W 06:29:57 10° SSW
